Location: Home
(42.5358°N, 72.7383°W)
Time: 09:13:07
(UTC-04:00)

A-11 Canister half - Pass Details

Date: 30 June 2022
Orbit: 1514 x 1685 km, 47.2° (Epoch: 15 August)

Event Time Altitude Azimuth Distance (km) Brightness Sun altitude
Rises 21:20:42 0° 202° (SSW) 4,912 11.4 -7.9°
Reaches altitude 10° 21:24:12 10° 194° (SSW) 3,935 10.9 -8.4°
Maximum altitude 21:33:02 36° 133° (SE) 2,464 9.6 -9.6°
Drops below altitude 10° 21:41:48 10° 72° (ENE) 3,924 10.9 -10.7°
Sets 21:45:16 0° 65° (ENE) 4,897 11.5 -11.2°
